Location: Unspecified
(0.0000°N, 0.0000°E)
Time: 00:14:07
(UTC+00:00)

LEMUR 2 DEMBITZ - Pass Details

Date: 16 January 2026
Orbit: 483 x 493 km, 97.4° (Epoch: 10 February)

Event Time Altitude Azimuth Distance (km) Brightness Sun altitude
Rises 04:56:08 0° 148° (SSE) 2,583 ? -17.1°
Reaches altitude 10° 04:58:30 10° 133° (SE) 1,699 ? -16.6°
Maximum altitude 05:01:28 24° 79° (E) 1,079 ? -15.9°
Drops below altitude 10° 05:04:26 10° 24° (NNE) 1,693 ? -15.2°
Sets 05:06:47 0° 10° (N) 2,572 ? -14.7°
